Location: White Mills Observatory
(37.5374°N, 86.0303°W)
Time: 00:54:19
(UTC-04:00)

Amateur Radio Satellites - All Passes

Search period start: 30 May 2016 00:24
Search period end: 31 May 2016 00:24
Location: White Mills Observatory, 37.5374°N, 86.0303°W

Satellite Date Start Highest point End Downlink Frequencies (MHz)
Time Altitude Azimuth
Cosmos 2499 30 May 00:28:42 00:35:21 37° 286° (WNW) 00:42:28 435.465 / 435.565
ANTELSAT 30 May 00:32:29 00:36:41 51° 286° (WNW) 00:40:56 437.575/2403.000
PHONESAT 2.4 30 May 00:41:42 00:44:44 46° 2° (N) 00:47:47 2401.200-2431.200
POPSAT HIP 1 30 May 00:41:56 00:45:42 31° 98° (E) 00:49:25 437.405
QB50P1 30 May 00:42:04 00:45:50 32° 97° (E) 00:49:36 145.935-145.965
QB50P2 30 May 00:45:10 00:49:05 37° 98° (E) 00:52:59 145.880/145.840
POLYITAN 1 30 May 00:47:38 00:51:34 37° 99° (E) 00:55:28 437.675
UKube-1 30 May 00:49:35 00:53:54 77° 77° (ENE) 00:58:15 .
SO-50 30 May 00:54:48 00:59:42 90° 135° (SE) 01:04:39 436.795
AISAT 30 May 00:55:22 00:59:46 58° 259° (W) 01:04:12 437.250
NANOSAT C BR1 30 May 00:58:49 01:02:53 48° 100° (E) 01:06:55 145.865
50 SAT 30 May 01:27:13 01:29:44 18° 265° (W) 01:32:15 437.505
JAS-2 30 May 01:29:03 01:34:30 23° 90° (E) 01:39:31 435.910
UNISAT 6 30 May 01:29:49 01:31:48 13° 295° (WNW) 01:33:48 437.425
RS-15 30 May 01:31:53 01:42:48 35° 40° (NE) 01:53:41 29.354- 29.394
DUCHIFAT 1 30 May 01:36:09 01:40:17 62° 285° (WNW) 01:44:23 145.980
TIGRISAT 30 May 01:36:56 01:38:25 12° 296° (WNW) 01:39:55 435.000
DX 1 30 May 01:42:15 01:45:37 22° 265° (W) 01:49:02 434.975-435.025
CUBEBUG 1 30 May 01:43:07 01:46:10 18° 266° (W) 01:49:13 437.445
BUGSAT 1 30 May 01:43:43 01:47:44 71° 101° (E) 01:51:43 437.445
ESTCUBE 1 30 May 01:47:11 01:48:54 12° 269° (W) 01:50:37 437.505/2401.250
DANDE 30 May 01:56:56 02:02:23 20° 280° (W) 02:07:26 436.750
SPROUT 30 May 01:57:27 02:01:14 30° 263° (W) 02:05:04 437.525
VELOX 1 30 May 01:57:57 02:00:03 13° 268° (W) 02:02:11 145.980
TISAT 1 30 May 02:11:29 02:15:43 81° 257° (WSW) 02:19:57 437.305
POPSAT HIP 1 30 May 02:18:15 02:21:14 19° 292° (WNW) 02:24:13 437.405
QB50P1 30 May 02:18:26 02:21:23 19° 292° (WNW) 02:24:19 145.935-145.965
PHONESAT 2.4 30 May 02:18:30 02:21:37 85° 204° (SSW) 02:24:45 2401.200-2431.200
QB50P2 30 May 02:21:54 02:24:34 17° 293° (WNW) 02:27:15 145.880/145.840
POLYITAN 1 30 May 02:24:25 02:27:02 16° 293° (WNW) 02:29:39 437.675
SWISSCUBE 30 May 02:30:44 02:34:55 32° 70° (ENE) 02:39:08 437.505
NANOSAT C BR1 30 May 02:36:16 02:38:10 13° 295° (WNW) 02:40:06 145.865
ITUPSAT 1 30 May 02:38:14 02:42:30 34° 70° (ENE) 02:46:47 437.325
SO-50 30 May 02:38:24 02:40:52 14° 318° (NW) 02:43:21 436.795
YUBILEINY 30 May 02:45:08 02:51:15 20° 66° (ENE) 02:57:20 435.215
Oscar 19 30 May 02:46:57 02:51:53 44° 99° (E) 02:56:44 437.125/150
ISS 30 May 02:55:55 02:57:59 16° 24° (NNE) 03:00:03 145.825
BEESAT 30 May 02:59:35 03:04:14 58° 74° (ENE) 03:08:55 436.000
JAS-2 30 May 03:12:53 03:20:02 58° 289° (WNW) 03:26:23 435.910
Gurwin Techsat 1B 30 May 03:30:23 03:35:31 48° 99° (E) 03:40:37 435.225
ITAMSAT 1 30 May 03:35:09 03:38:50 19° 94° (E) 03:42:31 435.822/435.867
Cosmos 2491 30 May 03:39:23 03:45:56 24° 82° (E) 03:52:29 435.465 / 435.565
RS-15 30 May 03:44:16 03:56:37 79° 244° (WSW) 04:08:48 29.354- 29.394
MOZHAYETS 4 30 May 03:49:18 03:52:09 17° 66° (ENE) 03:55:00
PHONESAT 2.4 30 May 03:55:55 03:58:03 17° 213° (SSW) 04:00:12 2401.200-2431.200
Cosmos 2504 30 May 04:02:50 04:08:22 18° 66° (ENE) 04:13:59 435.465 / 435.565
SWISSCUBE 30 May 04:08:55 04:12:43 24° 265° (W) 04:16:32 437.505
ITUPSAT 1 30 May 04:16:39 04:20:21 22° 265° (W) 04:24:05 437.325
Oscar 19 30 May 04:27:06 04:30:52 21° 295° (WNW) 04:34:35 437.125/150
ISS 30 May 04:31:31 04:34:47 80° 221° (SW) 04:38:02 145.825
AO-7 30 May 04:32:13 04:39:19 30° 97° (E) 04:46:22 29.400- 29.500
YUBILEINY 30 May 04:40:13 04:48:59 80° 265° (W) 04:57:46 435.215
BEESAT 30 May 04:40:16 04:42:22 13° 268° (W) 04:44:28 436.000
KKS-1 30 May 04:49:25 04:53:54 78° 259° (W) 04:58:22 437.445
Gurwin Techsat 1B 30 May 05:11:16 05:15:05 20° 295° (WNW) 05:18:53 435.225
ITAMSAT 1 30 May 05:13:31 05:18:30 46° 289° (WNW) 05:23:28 435.822/435.867
STARS 30 May 05:17:49 05:22:13 74° 258° (WSW) 05:26:38 437.465
CUBESAT XI-V 30 May 05:21:33 05:24:42 18° 66° (ENE) 05:27:53 437.345
MOZHAYETS 4 30 May 05:24:36 05:28:56 44° 261° (W) 05:33:19
Cosmos 2491 30 May 05:33:11 05:41:57 67° 280° (W) 05:50:45 435.465 / 435.565
Cosmos 2504 30 May 05:54:08 06:02:44 88° 265° (W) 06:11:38 435.465 / 435.565
JUGNU 30 May 05:57:58 05:58:56 10° 169° (S) 05:59:53 437.505
RS-15 30 May 06:00:05 06:07:03 17° 263° (W) 06:14:01 29.354- 29.394
HORYU 2 30 May 06:09:03 06:13:15 41° 99° (E) 06:17:28 437.375
AO-85 30 May 06:20:42 06:26:09 79° 118° (ESE) 06:31:32 145.980
AO-7 30 May 06:24:16 06:32:22 57° 294° (WNW) 06:40:29 29.400- 29.500
YUBILEINY 30 May 06:40:44 06:44:15 13° 284° (WNW) 06:47:47 435.215
NOAA 18 30 May 06:45:12 06:48:23 16° 92° (E) 06:51:35 137.9125
CUBESAT XI-V 30 May 06:57:19 07:01:44 42° 262° (W) 07:06:13 437.345
CUTE-I 30 May 07:08:58 07:13:07 22° 94° (E) 07:17:14 437.470
LilacSat-2 30 May 07:25:53 07:29:06 26° 96° (E) 07:32:19 437.200
BRITE-PL 30 May 07:32:26 07:37:11 44° 98° (E) 07:41:31 437.365/2234.400
Cosmos 2491 30 May 07:38:08 07:40:37 11° 301° (WNW) 07:43:05 435.465 / 435.565
GOMX 1 30 May 07:43:17 07:46:54 23° 94° (E) 07:50:22 467.674
JUGNU 30 May 07:44:12 07:47:05 14° 179° (S) 07:49:58 437.505
STRAND 1 30 May 07:45:19 07:50:10 47° 71° (ENE) 07:55:03 437.568
HORYU 2 30 May 07:46:39 07:49:28 17° 294° (WNW) 07:52:17 437.375
NOAA 15 30 May 07:47:42 07:53:00 78° 103° (ESE) 07:58:16 137.62
Cosmos 2504 30 May 07:50:10 07:54:56 16° 281° (W) 07:59:48 435.465 / 435.565
Cubesat XI-IV 30 May 08:02:37 08:07:59 74° 103° (ESE) 08:13:20 437.490
AO-85 30 May 08:03:38 08:07:13 18° 315° (NW) 08:10:46 145.980
DOVE 4 30 May 08:17:48 08:21:18 24° 95° (E) 08:24:41 437.250
AO-7 30 May 08:20:57 08:23:20 11° 313° (NW) 08:25:44 29.400- 29.500
NOAA 18 30 May 08:24:01 08:29:25 61° 288° (WNW) 08:34:50 137.9125
AIST 1 30 May 08:29:57 08:33:38 26° 76° (ENE) 08:37:16
Cosmos 2499 30 May 08:30:34 08:34:00 13° 61° (ENE) 08:37:29 435.465 / 435.565
GONETS M04 30 May 08:35:33 08:42:16 24° 68° (ENE) 08:48:56
HO-68 30 May 08:40:27 08:45:35 21° 93° (E) 08:50:40 435.675
CUTE-I 30 May 08:48:16 08:53:16 42° 290° (WNW) 08:58:17 437.470
PRISM 30 May 08:55:42 08:59:35 40° 72° (ENE) 09:03:30 437.425
LilacSat-2 30 May 09:00:35 09:03:13 18° 291° (WNW) 09:05:50 437.200
AUBIESAT-1 30 May 09:04:01 09:05:16 12° 99° (E) 09:06:30 437.475
SEEDS 30 May 09:10:35 09:13:36 19° 94° (E) 09:16:36 437.485
BRITE-PL 30 May 09:11:54 09:15:12 18° 296° (WNW) 09:18:21 437.365/2234.400
M-CUBED/EXP-1 PRIME 30 May 09:12:13 09:14:39 19° 101° (E) 09:17:05 437.505
CANX-2 30 May 09:13:03 09:16:56 32° 97° (E) 09:20:46 2200.000
GOMX 1 30 May 09:21:09 09:24:59 27° 291° (WNW) 09:28:37 467.674
STRAND 1 30 May 09:26:06 09:29:34 18° 267° (W) 09:33:02 437.568
SO-50 30 May 09:28:29 09:33:00 46° 55° (NE) 09:37:21 436.795
NOAA 15 30 May 09:29:48 09:32:04 13° 299° (WNW) 09:34:20 137.62
JUGNU 30 May 09:33:34 09:35:14 11° 190° (S) 09:36:53 437.505
O/OREOS (USA 219) 30 May 09:36:12 09:40:31 44° 106° (ESE) 09:44:51 437.305
CUTE 1.7 + AOD 2 30 May 09:39:28 09:43:42 58° 100° (E) 09:47:55 437.475
SRMSAT 30 May 09:43:11 09:46:00 14° 178° (S) 09:48:49 437.500
Cubesat XI-IV 30 May 09:44:44 09:47:23 14° 299° (WNW) 09:50:01 437.490
AAUSAT CUBESAT 2 30 May 09:50:19 09:54:01 29° 97° (E) 09:57:42 437.432
COMPASS 1 30 May 09:50:31 09:54:28 38° 98° (E) 09:58:24 437.405
DOVE 4 30 May 09:55:29 09:58:56 24° 291° (WNW) 10:02:16 437.250
Oscar 11 30 May 09:56:43 09:58:57 14° 92° (E) 10:01:09 145.826/435.025
PCSat 30 May 09:57:53 10:03:14 67° 114° (ESE) 10:08:38 145.827
CINEMA 3 30 May 10:03:52 10:07:59 68° 285° (WNW) 10:12:07 145.822/145.860
AIST 1 30 May 10:07:46 10:11:04 21° 272° (W) 10:14:19
ZACube-1 30 May 10:15:48 10:18:57 20° 95° (E) 10:22:07 437.345
Cosmos 2499 30 May 10:20:00 10:28:42 69° 81° (E) 10:37:33 435.465 / 435.565
HO-68 30 May 10:26:39 10:33:46 67° 289° (WNW) 10:40:52 435.675
GONETS M04 30 May 10:31:10 10:39:46 68° 267° (W) 10:48:20
PRISM 30 May 10:32:46 10:35:02 14° 267° (W) 10:37:21 437.425
CUBEBUG 2 30 May 10:33:24 10:37:36 76° 102° (ESE) 10:41:51 437.445
AUBIESAT-1 30 May 10:36:57 10:39:52 30° 292° (WNW) 10:42:50 437.475
SEEDS 30 May 10:45:32 10:49:20 32° 289° (WNW) 10:53:08 437.485
M-CUBED/EXP-1 PRIME 30 May 10:46:51 10:49:09 18° 295° (WNW) 10:51:26 437.505
UNISAT 6 30 May 10:48:23 10:52:21 35° 72° (ENE) 10:56:16 437.425
CANX-2 30 May 10:49:27 10:52:32 20° 292° (WNW) 10:55:38 2200.000
FUNcube-1 30 May 10:51:27 10:55:33 49° 99° (E) 10:59:44 145.935
BEESAT 2 30 May 10:53:10 10:53:47 10° 108° (ESE) 10:54:24 435.950
TIGRISAT 30 May 10:54:48 10:58:51 39° 73° (ENE) 11:02:51 435.000
UWE-3 30 May 10:55:41 10:59:54 87° 283° (WNW) 11:04:11 435.000/436.395/437.385
SO-50 30 May 11:10:02 11:13:03 17° 251° (WSW) 11:16:02 436.795
CUSAT 1 30 May 11:15:08 11:19:55 21° 81° (E) 11:25:18 437.405
O/OREOS (USA 219) 30 May 11:17:08 11:20:09 17° 302° (WNW) 11:23:09 437.305
CUTE 1.7 + AOD 2 30 May 11:17:32 11:19:01 12° 295° (WNW) 11:20:30 437.475
BEESAT 3 30 May 11:18:37 11:22:18 40° 115° (ESE) 11:26:00 437.485
AAUSAT CUBESAT 2 30 May 11:26:12 11:29:18 20° 291° (WNW) 11:32:23 437.432
COMPASS 1 30 May 11:27:03 11:29:42 16° 293° (WNW) 11:32:21 437.405
ANTELSAT 30 May 11:29:04 11:33:25 76° 257° (WSW) 11:37:43 437.575/2403.000
DELFI C3 30 May 11:30:29 11:34:33 82° 104° (ESE) 11:38:34 145.870
Oscar 11 30 May 11:31:08 11:35:17 46° 287° (WNW) 11:39:27 145.826/435.025
SRMSAT 30 May 11:32:21 11:34:18 12° 189° (S) 11:36:16 437.500
POPSAT HIP 1 30 May 11:33:10 11:36:11 19° 68° (ENE) 11:39:12 437.405
QB50P1 30 May 11:33:13 11:36:16 20° 68° (ENE) 11:39:19 145.935-145.965
HUMSAT D 30 May 11:33:19 11:37:12 35° 98° (E) 11:41:04 437.325/437.525
QB50P2 30 May 11:36:20 11:39:38 22° 69° (ENE) 11:42:56 145.880/145.840
POLYITAN 1 30 May 11:38:47 11:42:07 23° 69° (ENE) 11:45:26 437.675
DANDE 30 May 11:39:00 11:41:31 13° 76° (ENE) 11:44:15 436.750
JAS-2 30 May 11:42:50 11:44:14 11° 52° (NE) 11:45:38 435.910
PCSat 30 May 11:43:26 11:47:07 18° 312° (NW) 11:50:51 145.827
NANOSAT C BR1 30 May 11:49:15 11:52:51 28° 70° (ENE) 11:56:27 145.865
ZACube-1 30 May 11:51:33 11:55:14 30° 289° (WNW) 11:58:58 437.345
ESTCUBE 1 30 May 12:03:24 12:05:46 14° 92° (E) 12:08:08 437.505/2401.250
VELOX 1 30 May 12:13:45 12:14:50 11° 91° (E) 12:15:55 145.980
Cosmos 2499 30 May 12:14:31 12:21:01 24° 278° (W) 12:27:38 435.465 / 435.565
HO-68 30 May 12:17:55 12:20:09 12° 307° (NW) 12:22:24 435.675
DUCHIFAT 1 30 May 12:25:40 12:29:51 72° 75° (ENE) 12:34:03 145.980
UNISAT 6 30 May 12:26:16 12:29:10 17° 266° (W) 12:32:02 437.425
BEESAT 2 30 May 12:27:11 12:31:06 57° 303° (WNW) 12:35:02 435.950
FUNcube-1 30 May 12:29:27 12:31:24 13° 294° (WNW) 12:33:20 145.935
BUGSAT 1 30 May 12:31:22 12:35:14 37° 72° (ENE) 12:39:04 437.445
TIGRISAT 30 May 12:33:05 12:35:41 15° 267° (W) 12:38:16 435.000
UKube-1 30 May 12:40:09 12:42:33 15° 93° (E) 12:44:57 .
AISAT 30 May 12:47:50 12:51:41 29° 97° (E) 12:55:31 437.250
CUSAT 1 30 May 12:54:39 13:01:04 67° 282° (WNW) 13:08:52 437.405
50 SAT 30 May 12:57:10 13:00:42 40° 99° (E) 13:04:13 437.505
BEESAT 3 30 May 12:57:30 13:00:09 17° 312° (NW) 13:02:49 437.485
POPSAT HIP 1 30 May 13:07:57 13:11:44 32° 262° (W) 13:15:32 437.405
QB50P1 30 May 13:08:03 13:11:49 31° 262° (W) 13:15:37 145.935-145.965
HUMSAT D 30 May 13:09:48 13:12:31 17° 292° (WNW) 13:15:16 437.325/437.525
QB50P2 30 May 13:11:40 13:15:17 27° 263° (W) 13:18:54 145.880/145.840
POLYITAN 1 30 May 13:14:13 13:17:47 26° 264° (W) 13:21:22 437.675
DANDE 30 May 13:17:11 13:22:46 87° 275° (W) 13:30:09 436.750
JAS-2 30 May 13:20:17 13:27:29 56° 70° (ENE) 13:35:07 435.910
AIST 2 30 May 13:24:45 13:28:24 31° 113° (ESE) 13:32:04 435.215
NANOSAT C BR1 30 May 13:25:20 13:28:34 21° 265° (W) 13:31:48 145.865
DX 1 30 May 13:31:06 13:35:28 74° 103° (ESE) 13:39:47 434.975-435.025
CUBEBUG 1 30 May 13:32:00 13:36:23 84° 284° (WNW) 13:40:43 437.445
ESTCUBE 1 30 May 13:38:26 13:42:50 49° 287° (WNW) 13:47:11 437.505/2401.250
SPROUT 30 May 13:44:48 13:48:56 49° 100° (E) 13:53:03 437.525
VELOX 1 30 May 13:47:18 13:51:39 59° 286° (WNW) 13:55:58 145.980
TISAT 1 30 May 13:58:25 14:01:13 17° 94° (E) 14:03:59 437.305
Oscar 19 30 May 14:01:41 14:06:43 53° 72° (ENE) 14:11:46 437.125/150
BUGSAT 1 30 May 14:08:06 14:10:42 16° 266° (W) 14:13:17 437.445
UKube-1 30 May 14:14:41 14:18:47 42° 288° (WNW) 14:22:50 .
AISAT 30 May 14:24:34 14:28:00 22° 292° (WNW) 14:31:24 437.250
50 SAT 30 May 14:32:33 14:34:02 12° 294° (WNW) 14:35:32 437.505
CUSAT 1 30 May 14:42:29 14:44:57 12° 303° (WNW) 14:47:31 437.405
Gurwin Techsat 1B 30 May 14:49:25 14:54:39 63° 73° (ENE) 14:59:54 435.225
ITAMSAT 1 30 May 14:51:12 14:55:20 25° 67° (ENE) 14:59:30 435.822/435.867
AO-85 30 May 14:55:25 14:59:43 36° 52° (NE) 15:03:40 145.980
BEESAT 30 May 15:02:44 15:05:54 17° 93° (E) 15:09:02 436.000
AIST 2 30 May 15:03:36 15:06:53 23° 310° (NW) 15:10:12 435.215
DANDE 30 May 15:03:57 15:07:08 14° 302° (WNW) 15:10:38 436.750
JAS-2 30 May 15:06:34 15:12:45 29° 268° (W) 15:19:19 435.910
SPROUT 30 May 15:22:26 15:24:26 13° 295° (WNW) 15:26:26 437.525
AO-7 30 May 15:29:14 15:36:31 36° 61° (ENE) 15:43:49 29.400- 29.500
TISAT 1 30 May 15:33:11 15:36:56 33° 289° (WNW) 15:40:40 437.305
Oscar 19 30 May 15:43:03 15:46:19 17° 267° (W) 15:49:35 437.125/150
YUBILEINY 30 May 15:44:27 15:50:56 24° 82° (E) 15:57:26 435.215
Cosmos 2491 30 May 15:46:04 15:54:41 57° 79° (ENE) 16:03:11 435.465 / 435.565
RS-15 30 May 15:57:55 16:04:44 18° 98° (E) 16:11:41 29.354- 29.394
SWISSCUBE 30 May 16:09:45 16:14:35 81° 283° (WNW) 16:19:22 437.505
ITUPSAT 1 30 May 16:17:41 16:22:30 76° 285° (WNW) 16:27:18 437.325
ITAMSAT 1 30 May 16:29:52 16:34:35 36° 262° (W) 16:39:22 435.822/435.867
Gurwin Techsat 1B 30 May 16:32:12 16:34:59 14° 269° (W) 16:37:47 435.225
AO-85 30 May 16:36:38 16:39:50 20° 251° (WSW) 16:42:51 145.980
BEESAT 30 May 16:39:18 16:43:51 44° 288° (WNW) 16:48:23 436.000
KKS-1 30 May 16:42:57 16:46:28 23° 95° (E) 16:49:57 437.445
Cosmos 2504 30 May 16:43:50 16:45:40 11° 76° (ENE) 16:47:32 435.465 / 435.565
HORYU 2 30 May 17:05:20 17:09:11 30° 70° (ENE) 17:13:04 437.375
STARS 30 May 17:09:49 17:13:14 22° 95° (E) 17:16:39 437.465
AO-7 30 May 17:21:03 17:28:59 49° 258° (WSW) 17:37:00 29.400- 29.500
MOZHAYETS 4 30 May 17:21:13 17:25:43 48° 99° (E) 17:30:11
NOAA 15 30 May 17:29:50 17:31:58 12° 61° (ENE) 17:34:07 137.62
YUBILEINY 30 May 17:38:20 17:46:56 65° 280° (W) 17:55:36 435.215
Cosmos 2491 30 May 17:43:54 17:50:53 28° 277° (W) 17:57:51 435.465 / 435.565
Cubesat XI-IV 30 May 17:46:44 17:48:41 12° 60° (ENE) 17:50:38 437.490
RS-15 30 May 18:03:53 18:15:10 85° 117° (ESE) 18:27:08 29.354- 29.394
LilacSat-2 30 May 18:08:22 18:09:18 11° 66° (ENE) 18:10:14 437.200
NOAA 18 30 May 18:09:09 18:13:35 26° 66° (ENE) 18:17:59 137.9125
KKS-1 30 May 18:19:11 18:23:00 29° 290° (WNW) 18:26:48 437.445
CUTE-I 30 May 18:28:50 18:33:25 31° 68° (ENE) 18:38:01 437.470
Cosmos 2504 30 May 18:30:21 18:37:33 82° 95° (E) 18:45:14 435.465 / 435.565
BRITE-PL 30 May 18:39:44 18:45:06 45° 72° (ENE) 18:50:29 437.365/2234.400
HORYU 2 30 May 18:42:23 18:45:45 21° 265° (W) 18:49:08 437.375
STARS 30 May 18:45:50 18:49:34 28° 290° (WNW) 18:53:18 437.465
PCSat 30 May 18:47:55 18:52:53 35° 55° (NE) 18:57:49 145.827
GOMX 1 30 May 18:48:23 18:52:52 27° 69° (ENE) 18:57:15 467.674
CUBESAT XI-V 30 May 18:55:31 19:00:09 55° 100° (E) 19:04:44 437.345
MOZHAYETS 4 30 May 18:59:41 19:02:27 16° 294° (WNW) 19:05:13
NOAA 15 30 May 19:05:42 19:11:00 81° 257° (WSW) 19:16:21 137.62
HO-68 30 May 19:09:51 19:13:01 13° 54° (NE) 19:16:10 435.675
DOVE 4 30 May 19:20:40 19:24:49 25° 69° (ENE) 19:28:52 437.250
Cubesat XI-IV 30 May 19:22:42 19:28:00 83° 257° (WSW) 19:33:21 437.490
BEESAT 3 30 May 19:38:32 19:40:53 15° 47° (NE) 19:43:12 437.485
LilacSat-2 30 May 19:39:30 19:43:10 47° 261° (W) 19:46:50 437.200
YUBILEINY 30 May 19:43:59 19:45:37 11° 301° (WNW) 19:47:15 435.215
O/OREOS (USA 219) 30 May 19:47:57 19:52:24 61° 67° (ENE) 19:56:47 437.305
AUBIESAT-1 30 May 19:48:04 19:50:21 15° 64° (ENE) 19:52:33 437.475
NOAA 18 30 May 19:48:57 19:54:00 38° 261° (W) 19:59:04 137.9125
M-CUBED/EXP-1 PRIME 30 May 19:56:44 20:00:00 24° 67° (ENE) 20:03:06 437.505
STRAND 1 30 May 19:58:40 20:02:14 19° 93° (E) 20:05:47 437.568
SEEDS 30 May 20:02:49 20:03:36 10° 64° (ENE) 20:04:22 437.485
CANX-2 30 May 20:04:43 20:07:37 18° 68° (ENE) 20:10:33 2200.000
CUTE-I 30 May 20:08:45 20:13:22 30° 263° (W) 20:18:02 437.470
BRITE-PL 30 May 20:19:13 20:23:41 24° 267° (W) 20:28:09 437.365/2234.400
RS-15 30 May 20:19:16 20:29:11 32° 323° (NW) 20:39:35 29.354- 29.394
GOMX 1 30 May 20:25:38 20:30:42 38° 263° (W) 20:35:40 467.674
PHONESAT 2.4 30 May 20:27:20 20:29:09 14° 145° (SE) 20:30:58 2401.200-2431.200
Cosmos 2504 30 May 20:27:44 20:31:59 16° 296° (WNW) 20:36:24 435.465 / 435.565
CUTE 1.7 + AOD 2 30 May 20:30:22 20:34:04 31° 71° (ENE) 20:37:48 437.475
PCSat 30 May 20:31:29 20:36:08 30° 252° (WSW) 20:40:45 145.827
CUBESAT XI-V 30 May 20:34:31 20:37:02 14° 295° (WNW) 20:39:32 437.345
AAUSAT CUBESAT 2 30 May 20:39:41 20:42:13 16° 67° (ENE) 20:44:46 437.432
COMPASS 1 30 May 20:40:01 20:43:04 20° 69° (ENE) 20:46:09 437.405
BEESAT 2 30 May 20:47:02 20:50:50 42° 55° (NE) 20:54:37 435.950
HO-68 30 May 20:52:25 20:59:32 76° 72° (ENE) 21:06:41 435.675
DOVE 4 30 May 20:57:34 21:02:19 35° 263° (W) 21:06:55 437.250
AIST 1 30 May 20:57:53 21:00:51 18° 87° (E) 21:03:49
CINEMA 3 30 May 21:02:51 21:07:34 84° 77° (ENE) 21:12:06 145.822/145.860
ISS 30 May 21:09:25 21:12:40 87° 314° (NW) 21:15:57 145.825
ZACube-1 30 May 21:11:15 21:13:07 13° 66° (ENE) 21:15:00 437.345
BEESAT 3 30 May 21:15:01 21:18:50 48° 244° (WSW) 21:22:36 437.485
AUBIESAT-1 30 May 21:20:47 21:24:36 38° 256° (WSW) 21:28:11 437.475
CUBEBUG 2 30 May 21:29:28 21:33:39 48° 74° (ENE) 21:37:45 437.445
O/OREOS (USA 219) 30 May 21:30:23 21:31:11 10° 263° (W) 21:31:58 437.305
M-CUBED/EXP-1 PRIME 30 May 21:31:04 21:34:28 24° 258° (WSW) 21:37:40 437.505
GONETS M04 30 May 21:34:29 21:41:42 30° 84° (E) 21:48:51
SEEDS 30 May 21:34:37 21:38:44 61° 259° (W) 21:42:54 437.485
STRAND 1 30 May 21:36:41 21:41:36 47° 288° (WNW) 21:46:31 437.568
CANX-2 30 May 21:39:26 21:43:13 33° 263° (W) 21:47:03 2200.000
FUNcube-1 30 May 21:45:24 21:49:02 29° 71° (ENE) 21:52:38 145.935
AIST 2 30 May 21:48:39 21:50:54 14° 46° (NE) 21:53:07 435.215
UWE-3 30 May 21:50:36 21:54:48 57° 75° (ENE) 21:58:56 435.000/436.395/437.385
CUSAT 1 30 May 21:53:06 21:56:54 15° 59° (ENE) 22:00:24 437.405
PHONESAT 2.4 30 May 22:02:24 22:05:31 74° 161° (SSE) 22:08:39 2401.200-2431.200
CUTE 1.7 + AOD 2 30 May 22:06:57 22:09:57 19° 266° (W) 22:12:57 437.475
AAUSAT CUBESAT 2 30 May 22:13:34 22:17:23 37° 262° (W) 22:21:15 437.432
PRISM 30 May 22:14:02 22:18:13 88° 101° (E) 22:22:22 437.425
DELFI C3 30 May 22:14:35 22:18:09 34° 72° (ENE) 22:21:47 145.870
COMPASS 1 30 May 22:14:50 22:18:26 29° 264° (W) 22:22:05 437.405
DANDE 30 May 22:18:16 22:22:25 14° 59° (ENE) 22:26:21 436.750
Oscar 11 30 May 22:23:24 22:27:41 79° 259° (W) 22:32:00 145.826/435.025
HUMSAT D 30 May 22:23:31 22:26:26 19° 69° (ENE) 22:29:21 437.325/437.525
BEESAT 2 30 May 22:26:08 22:28:18 14° 251° (WSW) 22:30:29 435.950
AIST 1 30 May 22:34:10 22:38:08 33° 282° (WNW) 22:42:09
RS-15 30 May 22:40:17 22:47:23 17° 358° (N) 22:54:38 29.354- 29.394
HO-68 30 May 22:43:22 22:47:51 18° 268° (W) 22:52:22 435.675
ZACube-1 30 May 22:44:55 22:49:00 48° 260° (W) 22:53:03 437.345
ISS 30 May 22:47:38 22:49:31 14° 337° (NNW) 22:51:25 145.825
Cosmos 2499 30 May 22:54:29 23:01:31 56° 91° (E) 23:09:05 435.465 / 435.565
ESTCUBE 1 30 May 23:02:38 23:03:51 11° 63° (ENE) 23:05:03 437.505/2401.250
CUBEBUG 2 30 May 23:08:35 23:10:30 13° 268° (W) 23:12:22 437.445
FUNcube-1 30 May 23:22:14 23:25:18 19° 266° (W) 23:28:19 145.935
ANTELSAT 30 May 23:22:57 23:26:31 24° 96° (E) 23:30:06 437.575/2403.000
AIST 2 30 May 23:25:39 23:29:44 60° 243° (WSW) 23:33:49 435.215
GONETS M04 30 May 23:29:24 23:37:57 55° 282° (WNW) 23:46:32
UWE-3 30 May 23:31:08 23:31:34 10° 269° (W) 23:32:00 435.000/436.395/437.385
CUSAT 1 30 May 23:32:57 23:40:26 87° 82° (E) 23:46:19 437.405
UKube-1 30 May 23:34:43 23:35:35 11° 63° (ENE) 23:36:26 .
50 SAT 30 May 23:34:52 23:36:52 14° 68° (ENE) 23:38:53 437.505
PHONESAT 2.4 30 May 23:39:19 23:42:23 47° 356° (N) 23:45:26 2401.200-2431.200
SO-50 30 May 23:41:06 23:45:02 24° 111° (ESE) 23:48:58 436.795
AISAT 30 May 23:43:39 23:47:04 22° 68° (ENE) 23:50:30 437.250
DELFI C3 30 May 23:50:46 23:53:07 15° 267° (W) 23:55:30 145.870
HUMSAT D 30 May 23:58:19 00:01:51 29° 263° (W) 00:05:26 437.325/437.525
DANDE 30 May 23:58:31 00:06:54 73° 80° (E) 00:14:01 436.750
DUCHIFAT 1 31 May 00:13:34 00:15:27 13° 92° (E) 00:17:20 145.980
